MPEC 2003-S75 : 2003 SU214

The following Minor Planet Electronic Circular may be linked-to from your own Web pages, but must not otherwise be redistributed electronically.


Read MPEC 2003-S74 Read MPEC 2003-S76


M.P.E.C. 2003-S75                                Issued 2003 Sept. 28, 19:22 UT

     The Minor Planet Electronic Circulars contain information on unusual
         minor planets and routine data on comets.  They are published
   on behalf of Commission 20 of the International Astronomical Union by the
          Minor Planet Center, Smithsonian Astrophysical Observatory,
                          Cambridge, MA 02138, U.S.A.

         Supported in part by the Steven and Michele Kirsch Foundation
             Prepared using the Tamkin Foundation Computer Network

                              MPC@CFA.HARVARD.EDU
          URL http://cfa-www.harvard.edu/iau/mpc.html  ISSN 1523-6714

                                  2003 SU214

Observations:
     K03SL4U* C2003 09 27.30621 02 53 51.90 +19 20 58.1          19.9        704
     K03SL4U  C2003 09 27.31900 02 53 52.98 +19 21 14.5          19.9        704
     K03SL4U  C2003 09 27.33167 02 53 54.15 +19 21 30.8          19.8        704
     K03SL4U  C2003 09 27.34532 02 53 55.50 +19 21 47.7          20.0        704
     K03SL4U  C2003 09 27.35786 02 53 56.62 +19 22 03.8          20.3        704
     K03SL4U  C2003 09 27.96495 02 54 57.85 +19 34 20.9                      246
     K03SL4U  C2003 09 27.96641 02 54 57.98 +19 34 22.2                      246
     K03SL4U  C2003 09 27.96733 02 54 58.10 +19 34 23.4                      246
     K03SL4U  C2003 09 27.96793 02 54 58.11 +19 34 24.6                      246
     K03SL4U  C2003 09 27.97009 02 54 58.33 +19 34 27.6                      246
     K03SL4U  C2003 09 27.97203 02 54 58.52 +19 34 29.7                      246
     K03SL4U  C2003 09 28.27938 02 55 29.51 +19 40 58.4          19.6 R      854
     K03SL4U  C2003 09 28.28476 02 55 30.13 +19 40 58.6          19.6 R      854
     K03SL4U  C2003 09 28.28833 02 55 31.03 +19 41 05.2          19.5 R      854
     K03SL4U  C2003 09 28.29765 02 55 31.52 +19 41 15.6          19.2 R      G90
     K03SL4U  C2003 09 28.30122 02 55 31.68 +19 41 19.3          19.3 R      G90
     K03SL4U  C2003 09 28.30652 02 55 32.40 +19 41 26.6          19.1 R      G90
     K03SL4U 5C2003 09 28.32917 02 55 34.58 +19 41 54.3          18.0 R      673
     K03SL4U 5C2003 09 28.33426 02 55 35.08 +19 42 00.7                      673
     K03SL4U  C2003 09 28.34238 02 55 35.44 +19 42 10.3          18.8 R      H36
     K03SL4U 5C2003 09 28.34259 02 55 35.85 +19 42 11.1                      673
     K03SL4U  C2003 09 28.34751 02 55 35.94 +19 42 17.4                      H36
     K03SL4U  C2003 09 28.35265 02 55 36.42 +19 42 25.5                      H36
     K03SL4U  C2003 09 28.42436 02 55 43.35 +19 43 54.2          19.0 R      711
     K03SL4U  C2003 09 28.43078 02 55 43.94 +19 44 02.7          19.1 R      711
     K03SL4U  C2003 09 28.43721 02 55 44.54 +19 44 10.3          18.9 R      711

Observer details:
246 Klet Observatory-KLENOT.  Observers J. Ticha, M. Tichy.  1.06-m KLENOT
    Telescope + CCD.
673 Table Mountain Observatory, Wrightwood.  Observer J. Young.  0.6-m
    reflector + CCD.
704 Lincoln Laboratory ETS, New Mexico.  Observers M. Blythe, F. Shelly,
    M. Bezpalko, R. Huber, L. Manguso, D. Torres, R. Kracke, M. McCleary,
    H. Stange.  Measurers J. Stuart, R. Sayer, J. Evans, J. Kommers.  1.0-m
    f/2.15 reflector + CCD.
711 McDonald Observatory.  Observer J. G. Ries.  0.76-m reflector with prime
    focus corrector + CCD.
854 Sabino Canyon Observatory, Tucson.  Observer J. E. McGaha.  0.30-m f/10.0
    Schmidt-Cassegrain + CCD.
G90 Three Buttes Observatory, Tucson.  Observer G. R. Jones.  0.32-m
    Ritchey-Chretien + CCD.
H36 Sandlot Observatory, Scranton.  Observer G. Hug.  .3 meter
    Schmidt-Cassegrain + CCD.

Orbital elements:
2003 SU214
Epoch 2003 Sept. 18.0 TT = JDT 2452900.5                MPC
M 337.28549              (2000.0)            P               Q
n   0.27754540     Peri.   70.97393     +0.19462373     -0.98079311
a   2.3276268      Node     7.83711     +0.86060341     +0.16443284
e   0.5004932      Incl.    5.42983     +0.47062021     +0.10491295
P   3.55           H   19.1           G   0.15
From 26 observations 2003 Sept. 27-28.

Ephemeris:
2003 SU214               a,e,i = 2.33, 0.50, 5                   q = 1.1627
Date    TT    R. A. (2000) Decl.     Delta      r     Elong.  Phase     V
2003 09 28    02 55.01   +19 35.2    0.489    1.401   137.3    29.0    19.6
2003 10 08    03 12.18   +23 20.0    0.410    1.346   142.0    27.2    19.0
2003 10 18    03 30.69   +27 49.6    0.344    1.296   146.0    25.4    18.5
2003 10 28    03 51.53   +33 07.5    0.292    1.253   148.8    24.3    18.0
2003 11 07    04 16.40   +39 03.2    0.253    1.216   149.8    24.2    17.7
2003 11 17    04 47.25   +45 02.7    0.226    1.188   148.9    25.4    17.4
2003 11 27    05 24.72   +50 07.1    0.211    1.170   147.3    27.1    17.3
2003 12 07    06 06.36   +53 15.3    0.207    1.163   146.2    28.1    17.3
2003 12 17    06 45.42   +53 59.8    0.211    1.166   146.7    27.6    17.3
2003 12 27    07 15.20   +52 35.2    0.223    1.180   149.0    25.4    17.4
2004 01 06    07 34.61   +49 38.4    0.244    1.205   152.3    22.3    17.5
2004 01 16    07 46.46   +45 49.2    0.274    1.238   155.3    19.4    17.7
2004 01 26    07 54.45   +41 40.0    0.316    1.280   156.0    18.2    18.1
2004 02 05    08 01.69   +37 34.9    0.370    1.327   153.6    19.3    18.5
2004 02 15    08 09.67   +33 48.8    0.437    1.381   148.9    21.7    19.1
2004 02 25    08 18.99   +30 26.9    0.518    1.438   143.0    24.5    19.6
2004 03 06    08 29.84   +27 28.3    0.613    1.498   136.7    27.0    20.1
2004 03 16    08 41.95   +24 49.5    0.720    1.561   130.4    29.0    20.6
2004 03 26    08 55.10   +22 25.9    0.839    1.625   124.2    30.5    21.1
2004 04 05    09 09.06   +20 13.3    0.969    1.689   118.1    31.5    21.5
2004 04 15    09 23.55   +18 08.4    1.109    1.755   112.2    32.0    21.9

Kyle E. Smalley              (C) Copyright 2003 MPC           M.P.E.C. 2003-S75

Read MPEC 2003-S74 Read MPEC 2003-S76


Our Web policy. Index to the CBAT/MPC/ICQ pages.

MPC